This is the latest recevied weather packets stored in our database for station/object KC5DAQ-25. If no packets are shown the sender has not sent any weather packets the latest 10 day(s).
| Time | Temp. | Humidity | Pressure | Rain* | Wind** | Luminosity | Snow |
|---|---|---|---|---|---|---|---|
| 1778194599 | 23.33° C | 75% | 1005.6 hPa | 0 mm | - | 141 W/m² | - |
| 1778194539 | 23.33° C | 75% | 1005.6 hPa | 0 mm | - | 141 W/m² | - |
| 1778194479 | 23.33° C | 75% | 1005.5 hPa | 0 mm | - | 116 W/m² | - |
| 1778194418 | 23.33° C | 74% | 1005.6 hPa | 0 mm | - | 99 W/m² | - |
| 1778194359 | 23.33° C | 74% | 1005.5 hPa | 0 mm | - | 99 W/m² | - |
| 1778194298 | 23.33° C | 75% | 1005.5 hPa | 0 mm | - | 99 W/m² | - |
| 1778194240 | 23.33° C | 75% | 1005.5 hPa | 0 mm | - | 92 W/m² | - |
| 1778194180 | 23.33° C | 75% | 1005.5 hPa | 0 mm | - | 67 W/m² | - |
| 1778194120 | 23.33° C | 75% | 1005.5 hPa | 0 mm | - | 67 W/m² | - |
| 1778194060 | 23.33° C | 75% | 1005.5 hPa | 0 mm | - | 60 W/m² | - |
| 1778193998 | 23.33° C | 75% | 1005.5 hPa | 0 mm | - | 60 W/m² | - |
| 1778193945 | 23.33° C | 75% | 1005.5 hPa | 0 mm | - | 62 W/m² | - |
| 1778193874 | 23.33° C | 74% | 1005.3 hPa | 0 mm | - | 62 W/m² | - |
| 1778193815 | 23.33° C | 73% | 1005.2 hPa | 0 mm | - | 65 W/m² | - |
| 1778193754 | 23.89° C | 73% | 1005.3 hPa | 0 mm | - | 70 W/m² | - |
| 1778193691 | 23.89° C | 73% | 1005.1 hPa | 0 mm | - | 77 W/m² | - |
| 1778193632 | 23.89° C | 73% | 1005.1 hPa | 0 mm | - | 86 W/m² | - |
| 1778193613 | 23.89° C | 73% | 1005 hPa | 0 mm | - | 128 W/m² | - |
| 1778193601 | 23.89° C | 74% | 1005.1 hPa | 0 mm | - | 106 W/m² | - |
| 1778193586 | 23.89° C | 74% | 1005.1 hPa | 0 mm | - | 106 W/m² | - |
| 1778193387 | 23.89° C | 73% | 1005 hPa | 0 mm | - | 128 W/m² | - |
| 1778193334 | 23.89° C | 73% | 1005 hPa | 0 mm | - | 144 W/m² | - |
| 1778193262 | 23.89° C | 73% | 1005 hPa | 0 mm | - | 172 W/m² | - |
| 1778193201 | 23.89° C | 74% | 1004.9 hPa | 0 mm | - | 172 W/m² | - |
| 1778193137 | 23.89° C | 74% | 1005 hPa | 0 mm | - | 218 W/m² | - |
* Rain latest hour (hover to see other rain measurements)
** Current wind speed in m/s (hover to see current wind gust speed)